Aérodrome :
LOGIN :

S'inscrire | Disclaimer

   EN    FR    IT 

 










Légende :    VFR   VFR Marginal   IFR   IFR Intensif   IFR Très Intensif
Visi : 
Plafond : 
>= 8 km
>= 3000ft
5 à 8 km
1000 à 3000 ft
1500m à 5 km
500 à 1000 ft
800 à 1500m
200 à 500 ft
< 800m
< 200 ft
Symboles :   Orages  Brouillard  Fortes neiges  Fortes précipitations  Vent > 20 kt
SIGMETs :   Divers  Orages  Givrage  Turbulence  Onde Orograph.  Cendres Volcan.






- Altitude de l'aérodrome : 26 ft


ETNT - Wittmundhaven AB

DERNIER METAR :
  • 050220Z 07003KT 9999 FEW130 11/11 Q1011 BLU+

METARs EXPIRÉS :
  • 050120Z 07003KT 9999 FEW130 11/11 Q1012 BLU+
  • 050020Z 35001KT 9999 FEW050 11/11 Q1012 BLU+

TAF TAF ETNT
Valide du 05 à 02h jusqu'au 05 à 11h UTC


050125Z 0502/0511 07005KT 9999 NSW FEW030 SCT100
TEMPO 0502/0506 08003KT 2000 MIFG FEW020
PROB30 0502/0506 VRB02KT 0400 FG BKN002
PROB30 0509/0511 12012KT 4000 -SHRA BKN025TCU BY ETGL



MET'MAP, la Météo Aéronautique d'un coup d'oeil ! - Copyright ORBIFLY Décembre 2007 - Disclaimer

ORBIFLY MET'MAP TEAM :

Programmation & Développement : Alexandra Zaïnal
Sur une idée originale de : Baudouin d'Aumeries
Assistance à la programmation : Marc-Olivier Méhu
Soutien technique & logistique : Manuel Goepfert

Contact : metmap@orbifly.com




SOURCES & CREDITS :

   NOAA